This demonstration page uses our WeatherBlox Daily Observations layout. Learn more.

Left ArrowRight Arrow

31.31129, -92.44514

Hourly Observations for August 11, 2016

Temp ( °F °C ) Dew Point ( °F °C ) Humidity (%) Winds ( mph kmh ) Pressure ( in mb ) Visibility ( mi km ) Precip ( " mm )
12:53 am 00:53 Clear 78 25.6 76 24.4 93 93 Calm 29.94 1014 7 11 0.00 0.00
1:53 am 01:53 Clear 77 25 76 24.4 96 96 Calm 29.95 1014 7 11 0.00 0.00
2:53 am 02:53 Clear with Mist and Fog 77 25 76 24.4 96 96 Calm 29.95 1014 6 10 0.00 0.00
3:53 am 03:53 Clear with Mist and Fog 77 25 76 24.4 96 96 Calm 29.94 1014 5 8 0.00 0.00
4:53 am 04:53 Clear with Mist and Fog 77 25 76 24.4 96 96 Calm 29.95 1014 5 8 0.00 0.00
5:53 am 05:53 Clear with Mist and Fog 77 25 76 24.4 96 96 Calm 29.94 1014 5 8 0.00 0.00
6:53 am 06:53 Sunny with Mist and Fog 77 25 76 24.4 96 96 WNW 3 6 29.94 1014 5 8 0.00 0.00
7:53 am 07:53 Sunny with Mist and Fog 78 25.6 77 25 97 97 Calm 29.95 1014 5 8 0.00 0.00
8:53 am 08:53 Sunny with Mist and Fog 79 26.1 77 25 94 94 Calm 29.98 1015 6 10 0.00 0.00
9:53 am 09:53 Sunny 82 27.8 79 26.1 90 90 Calm 29.98 1015 7 11 0.00 0.00
10:53 am 10:53 Mostly Cloudy 87 30.6 79 26.1 77 77 NW 7 11 29.98 1015 8 13 0.00 0.00
11:53 am 11:53 Partly Cloudy 92 33.3 80 26.7 68 68 N 9 15 29.96 1015 9 14 0.00 0.00
12:25 pm 12:25 Partly Cloudy with Nearby Thunderstorms 92 33.3 79 26.1 66 66 NNW 10 17 29.94 1014 9 14 0.00 0.00
12:40 pm 12:40 Sunny 92 33.3 79 26.1 66 66 NNW 10 17 29.94 1014 9 14 0.00 0.00
12:53 pm 12:53 Mostly Sunny 93 33.9 79 26.1 64 64 NNE 8 13 29.93 1014 10 16 0.00 0.00
1:53 pm 13:53 Mostly Sunny 93 33.9 78 25.6 62 62 SW 13 20 29.93 1014 9 14 0.00 0.00
2:13 pm 14:13 Mostly Cloudy 87 30.6 77 25 72 72 SW 16 26 29.91 1013 10 16 0.00 0.00
2:53 pm 14:53 Mostly Sunny 89 31.7 77 25 68 68 WSW 9 15 29.90 1013 10 16 0.00 0.00
3:53 pm 15:53 Sunny 90 32.2 76 24.4 63 63 SW 9 15 29.88 1012 10 16 0.00 0.00
4:53 pm 16:53 Sunny 90 32.2 76 24.4 63 63 WSW 9 15 29.86 1011 10 16 0.00 0.00
5:53 pm 17:53 Partly Cloudy 89 31.7 77 25 68 68 WNW 12 19 29.89 1012 10 16 0.00 0.00
6:53 pm 18:53 Sunny 84 28.9 75 23.9 74 74 NW 9 15 29.90 1013 10 16 0.00 0.00
7:53 pm 19:53 Sunny 81 27.2 75 23.9 82 82 Calm 29.88 1012 10 16 0.00 0.00
8:53 pm 20:53 Clear 79 26.1 76 24.4 90 90 W 5 7 29.86 1011 10 16 0.00 0.00
9:53 pm 21:53 Clear 79 26.1 76 24.4 90 90 Calm 29.87 1012 10 16 0.00 0.00
10:53 pm 22:53 Clear 79 26.1 76 24.4 90 90 Calm 29.88 1012 10 16 0.00 0.00
11:53 pm 23:53 Clear 78 25.6 77 25 97 97 SSE 5 7 29.88 1012 8 13 0.00 0.00

Powered by AerisWeather